www.pogodaiklimat.ru

Погода и климат >> Архив погоды >> Пакистан >> Sibi


ПОГОДА в Sibi

  • Прогноз погоды в Sibi
  • Монитор погоды в Sibi
  • Климат города

АРХИВ ПОГОДЫ в Sibi

Время (UTC), дата Ветер
(напр.,м/с)
 
Видим.   Явления Облачность Т
(С)
Тd
(С)
f
(%)
Тe
(С)
Тes
(С)
Комфортность P
(гПа)
Po
(гПа)
Тmin
(С)
Tmax
(С)
R
(мм)
R24
(мм)
S
(см)
18 18.05 ЮВ 2 4000 м 5/5 300 м
[Sc]
+33.3 +17.3 39 +37 +37 очень
душно
1002.1 1000.0
21 18.05 штиль 0 4000 м 5/5 300 м
[Sc]
+31.1 +15.9 40 +34 +34 душно 1001.3 1000.0
00 19.05 штиль 0 4000 м 5/5 300 м
[Sc]
+29.4 +16.9 47 +33 +33 душно 1000.7 985.5
03 19.05 штиль 0 10 км 5/5 300 м
[Sc]
+32.8 +18.5 43 +38 +41 очень
душно
1001.9 986.9 +24.5
06 19.05 СЗ 5 10 км ясно +35.6 +19.0 38 +40 +50 очень
душно
1005.1 1005.0
09 19.05 ЮЗ 3 10 км ясно +38.9 +18.9 31 +43 +58 опасность
перегрева
1002.7 1003.0
12 19.05 ЮЗ 2 10 км ясно +42.2 +19.2 27 +47 +52 опасность
перегрева
998.9 1001.2 +45.0
15 19.05 ЮЗ 2 4000 м ясно +37.2 +20.0 37 +43 +43 опасность
перегрева
1000.7 1000.0
18 19.05 ЮЗ 2 4000 м ясно +33.9 +18.9 41 +39 +39 очень
душно
1003.3 1000.0
21 19.05 ЮЗ 2 4000 м ясно +31.7 +16.6 40 +35 +35 очень
душно
1002.5 1000.0
00 20.05 штиль 0 4000 м ясно +28.9 +15.3 44 +32 +32 душно 1001.9 986.7
03 20.05 ЮЗ 1 10 км ясно +33.3 +17.3 39 +37 +43 очень
душно
1003.4 988.4 +23.1
06 20.05 ЮЗ 2 10 км ясно +36.1 +14.5 28 +37 +56 опасность
солнечного
удара
1006.2 1000.0
09 20.05 ЮЗ 2 10 км ясно +39.4 +14.2 23 +40 +61 опасность
солнечного
удара
1003.9 1000.0
12 20.05 ЮЗ 1 10 км ясно +41.7 +12.6 18 +41 +47 опасность
перегрева
1001.1 1000.0 +44.1
15 20.05 ЮЗ 1 4000 м ясно +36.1 +13.3 26 +37 +37 душно 1003.0 1000.0
18 20.05 ЮЗ 1 4000 м ясно +33.3 +12.9 29 +34 +34 очень
жарко
1004.6 1000.0
21 20.05 ЮЗ 2 4000 м ясно +31.7 +10.9 28 +32 +32 жарко 1004.0 1000.0
00 21.05 штиль 0 4000 м ясно +29.4 +11.5 33 +30 +30 жарко 1003.9 988.7
03 21.05 штиль 0 10 км ясно +32.8 +13.3 31 +34 +41 очень
жарко
1004.3 989.3 +23.5
06 21.05 ЮЗ 3 10 км ясно +36.1 +13.3 26 +37 +52 опасность
солнечного
удара
1008.2 996.8
09 21.05 ЮЗ 1 10 км ясно +38.9 +13.3 22 +39 +61 опасность
солнечного
удара
1004.8 1000.0
12 21.05 ЮЗ 2 10 км ясно +41.7 +16.3 23 +44 +49 опасность
перегрева
1002.1 987.6 +45.1
15 21.05 ЮВ 2 4000 м ясно +35.0 +18.3 37 +39 +39 очень
душно
1003.1 1000.0
18 21.05 СЗ 3 4000 м ясно +32.8 +17.6 40 +37 +37 очень
душно
1005.3 1000.0
21 21.05 СЗ 2 4000 м ясно +30.6 +16.2 42 +34 +34 очень
душно
1004.6 1000.0
00 22.05 СЗ 2 4000 м ясно +28.9 +17.2 49 +33 +33 очень
душно
1003.9 988.7
03 22.05 штиль 0 10 км ясно +32.2 +17.2 41 +36 +43 очень
душно
1005.1 990.1 +24.1
06 22.05 штиль 0 10 км ясно +35.6 +18.0 35 +39 +65 опасность
солнечного
удара
1008.7 1009.0
09 22.05 штиль 0 10 км ясно +40.0 +17.3 27 +43 +68 опасность
перегрева
1004.8 1000.0
12 22.05 штиль 0 10 км ясно +42.2 +18.1 25 +45 +52 опасность
перегрева
1002.0 1000.5 +45.1
15 22.05 ЮЗ 4 4000 м ясно +36.1 +18.7 36 +40 +40 очень
душно
1003.1 1003.0
18 22.05 ЮВ 2 4000 м ясно +33.9 +16.9 36 +37 +37 очень
душно
1004.4 1000.0
21 22.05 штиль 0 4000 м ясно +31.7 +15.5 38 +34 +34 душно 1003.8 993.2
00 23.05 штиль 0 4000 м ясно +29.4 +13.8 38 +31 +31 жарко 1003.2 988.0
03 23.05 штиль 0 10 км ясно +33.3 +14.1 31 +34 +42 очень
жарко
1004.8 989.8 +25.0
06 23.05 штиль 0 10 км ясно +36.7 +14.1 26 +37 +63 опасность
солнечного
удара
1007.0 1007.0
09 23.05 штиль 0 10 км ясно +40.6 +14.6 22 +41 +67 опасность
перегрева
1003.6 1000.0
12 23.05 штиль 0 10 км ясно +42.2 +18.1 25 +45 +52 опасность
перегрева
1000.0 999.5 +45.1
15 23.05 штиль 0 4000 м ясно +36.7 +19.4 36 +42 +42 опасность
перегрева
1000.9 1001.0
18 23.05 штиль 0 4000 м ясно +32.2 +16.2 38 +35 +35 очень
душно
1002.3 1000.0
21 23.05 штиль 0 4000 м ясно +29.4 +16.9 47 +33 +33 душно 1001.7 1000.0
00 24.05 штиль 0 4000 м ясно +27.8 +15.9 48 +31 +31 душно 1000.9 985.7
03 24.05 штиль 0 10 км ясно +31.7 +15.5 38 +34 +42 душно 1002.2 987.2 +21.1
06 24.05 штиль 0 10 км ясно +35.6 +17.0 33 +38 +64 опасность
солнечного
удара
1003.1 1003.0
09 24.05 штиль 0 10 км ясно +38.3 +17.1 29 +41 +67 опасность
перегрева
1000.7 1001.0
12 24.05 штиль 0 10 км ясно +40.0 +17.3 27 +43 +50 опасность
перегрева
997.2 998.8 +43.1
15 24.05 штиль 0 4000 м ясно +37.8 +20.4 36 +44 +44 опасность
перегрева
998.0 998.0
18 24.05 штиль 0 4000 м ясно +32.8 +19.5 46 +39 +39 очень
душно
1000.3 1000.0
21 24.05 штиль 0 4000 м ясно +30.6 +18.2 48 +35 +35 очень
душно
999.6 1000.0
00 25.05 штиль 0 4000 м ясно +28.3 +17.5 52 +32 +32 душно 998.9 983.7
03 25.05 штиль 0 10 км ясно +32.8 +18.5 43 +38 +45 очень
душно
1000.1 985.1 +24.1
06 25.05 СЗ 3 10 км ясно +36.1 +18.7 36 +40 +56 опасность
солнечного
удара
1003.1 1003.0
09 25.05 штиль 0 10 км ясно +39.4 +18.6 30 +43 +69 опасность
перегрева
999.6 1000.0
12 25.05 ЮЗ 2 10 км ясно +42.2 +26.7 42 +58 +63 опасность
перегрева
997.9 983.5 +44.0

 

Местоположение метеостанции Sibi (Пакистан): широта 29.55 долгота 67.88 высота над уровнем моря 134 м.

В архиве по умолчанию представлена погода в Sibi за последнюю неделю. Архивные данные за месяц целиком и за предыдущие месяцы, начиная с января 2011 года, Вы можете получить, выбрав интересующий диапазон дат из раскрывающегося списка и нажав кнопку "Ввод!".


*Определитесь, кто Вы:
робот инопланетянин человек

Внимание! Время в таблицах - всемирное. Для получения местного времени необходимо прибавить поправку, которая в Sibi равна 5 ч.

Смотрите также архив погоды в соседних городах и на ближайших метеорологических станциях:

Погода в Quetta Airport (Пакистан) (124 км)
Погода в Kalat (Пакистан) (139 км)
Погода в Jacobabad (Пакистан) (150 км)
Погода в Barkhan (Пакистан) (181 км)
Погода в Khuzdar (Пакистан) (227 км)
Погода в Rohri (Пакистан) (232 км)
Погода в Zhob (Пакистан) (252 км)
Погода в Khanpur (Пакистан) (290 км)
Погода в Kandahar (Афганистан) (292 км)
Погода в Pad Idan (Пакистан) (301 км)

Пояснения к столбцам:

Ветер - указаны скорость ветра в м/с - средняя за 10 мин, порывы в срок и между сроками (в фигурных скобках) и направление, откуда дует ветер: С - северный, СВ - северо-восточный, В - восточный, ЮВ - юго-восточный, Ю - южный, ЮЗ - юго-западный, З - западный, СЗ - северо-западный.
Видимость - горизонтальная дальность видимости в метрах или километрах. При видимости от 1 до 10 км при отсутствии осадков обычно наблюдается дымка, при ухудшении видимости до 1 км и менее - туман. В сухую погоду видимость может ухудшаться дымом, пылью или мглою.
Явления - указаны атмосферные явления, наблюдавшиеся в срок или в последний час перед сроком; фигурными скобками обозначены явления, наблюдавшиеся между сроками (за 1-3 часа до срока); квадратными скобками обозначены град или гололедные отложения с указанием их диаметра в мм.
Облачность - указаны через наклонную черту общая и нижняя облачность в баллах и высота нижней границы облаков в метрах; квадратными скобками обозначены формы облаков: Ci - перистые, Cs - перисто-слоистые, Cc - перисто-кучевые, Ac - высококучевые, As - высокослоистые, Sc - слоисто-кучевые, Ns - слоисто-дождевые, Cu - кучевые, Cb - кучево-дождевые. Подробнее классификацию облаков см. в Атласе облаков (PDF).
T - Температура воздуха - температура, измеренная на высоте 2 м над землей.
Td - Температура точки росы - температура, при понижении до которой содержащийся в воздухе водяной пар достигнет насыщения.
f - Относительная влажность воздуха - влажноcть воздуха, измеренная на высоте 2 м над землей.
Te - Эффективная температура - температура, которую ощущает одетый по сезону человек в тени. Характеристика душности погоды. При расчете учитывается влияние влажности воздуха и скорости ветра на теплоощущения человека.
Tes - Эффективная температура на солнце - температура, которую ощущает человек, с поправкой на солнечный нагрев. Характеристика знойности погоды. Зависит от высоты солнца над горизонтом, облачности и скорости ветра. Ночью, в пасмурную погоду, а также при ветре 12 м/с и более поправка равна нулю.
P - Атмосферное давление - приведенное к уровню моря атмосферное давление.
Po - Атмосферное давление - измеренное на уровне метеостанции атмосферное давление.
Tmin - Минимальная температура - минимум температуры воздуха на высоте 2 м над землей.
Tmax - Максимальная температура - максимум температуры воздуха на высоте 2 м над землей.
R - Количество осадков - Количество выпавших осадков за период времени, мм. При наведении курсора мыши на число - период времени, за который выпало указанное количество осадков.
R24 - Количество осадков - Количество выпавших осадков за 24 часа, мм.
S - Снежный покров - Высота снежного покрова, см. При наведении курсора мыши на число - состояние снежного покрова и степень покрытия местности в баллах.